DW7076 Floda SE current weather conditions

sailwx.info

Wind from 175

Air temperature 8.9° C
Dewpoint 8.0° C

Last reported at 2015-Sep-04 22:56 UTC.
Time now 2015-Sep-04 23:10 UTC

Location: N 57°49' E 012°21'.
View on Google Maps.

See reports from other nearby stations

  
Tides and Currents Weather Stations Pressure Air Temp Water Temp Dewpoint Dewpoint Depression Visibility Wind Speed Wind Dir Waves Ship Positions
date/time (UTC)wind fromknots sea level pressurealtimeterstation pressurevisibilityair tempwater tempwave heightnotes
2015-Sep-04 22:56 175 8.9
2015-Sep-04 22:46 175 8.9
2015-Sep-04 22:36 175 8.9
2015-Sep-04 22:26 175 8.9
2015-Sep-04 22:16 175 8.9
2015-Sep-04 22:06 175 8.9
2015-Sep-04 21:56 175 8.9
2015-Sep-04 21:46 175 8.9
2015-Sep-04 21:36 175 8.9
2015-Sep-04 21:26 175 8.9
2015-Sep-04 21:16 175 9.4
2015-Sep-04 21:06 175 9.4
2015-Sep-04 20:56 175 9.4
2015-Sep-04 20:46 175 9.4
2015-Sep-04 20:36 175 9.4
2015-Sep-04 20:26 175 10.0
2015-Sep-04 20:16 175 10.0
2015-Sep-04 20:06 175 10.0
2015-Sep-04 19:56 175 10.6
2015-Sep-04 19:46 175 10.6
2015-Sep-04 19:36 175 10.6
2015-Sep-04 19:26 175 10.6
2015-Sep-04 19:16 175 11.1
2015-Sep-04 19:06 175 11.1
2015-Sep-04 18:56 175 11.1
2015-Sep-04 18:46 175 11.7
2015-Sep-04 18:36 175 0 gusting 0 11.7
2015-Sep-04 18:26 175 11.7
2015-Sep-04 18:16 175 12.2
2015-Sep-04 18:06 175 12.2
2015-Sep-04 17:56 175 12.8
2015-Sep-04 17:46 175 0 gusting 1 12.8
2015-Sep-04 17:36 175 13.3
2015-Sep-04 17:26 175 13.9
2015-Sep-04 17:16 175 13.9
2015-Sep-04 17:06 175 0 gusting 5 14.4
2015-Sep-04 16:56 190 14.4
2015-Sep-04 16:46 178 0 gusting 5 15.0
2015-Sep-04 16:36 266 15.0
2015-Sep-04 16:26 198 15.6
2015-Sep-04 16:16 161 15.6
2015-Sep-04 16:06 242 0 gusting 6 16.1
2015-Sep-04 15:56 171 0 gusting 2 16.1
2015-Sep-04 15:46 163 16.7
2015-Sep-04 15:36 163 0 gusting 2 16.7
2015-Sep-04 15:26 300 1 gusting 2 17.2
2015-Sep-04 15:16 302 17.2
2015-Sep-04 15:06 302 16.7
2015-Sep-04 14:56 302 16.7
2015-Sep-04 14:46 205 16.1
2015-Sep-04 14:36 255 16.7
2015-Sep-04 14:26 255 16.7
2015-Sep-04 14:16 159 0 gusting 4 17.2
2015-Sep-04 13:56 328 1 gusting 2 17.2
2015-Sep-04 13:46 271 1 gusting 6 17.2
2015-Sep-04 13:36 273 0 gusting 5 17.8
2015-Sep-04 13:26 226 2 gusting 6 17.8
2015-Sep-04 13:16 208 0 gusting 6 17.8
2015-Sep-04 13:06 198 3 gusting 5 17.8
2015-Sep-04 12:56 146 17.8
2015-Sep-04 12:46 271 0 gusting 4 17.2
2015-Sep-04 12:26 162 0 gusting 2 16.7
2015-Sep-04 12:16 281 2 gusting 6 17.2
2015-Sep-04 12:06 038 16.7
2015-Sep-04 11:56 331 0 gusting 4 16.1
2015-Sep-04 11:46 239 0 gusting 2 16.1
2015-Sep-04 11:36 153 16.1
2015-Sep-04 11:16 184 16.7
2015-Sep-04 10:56 153 16.7
2015-Sep-04 10:46 128 0 gusting 2 16.7
2015-Sep-04 10:36 138 16.7
2015-Sep-04 10:16 302 0 gusting 2 16.1
2015-Sep-04 10:06 242 1 gusting 6 16.1
2015-Sep-04 09:46 169 1 gusting 6 16.1
2015-Sep-04 09:36 168 16.7
2015-Sep-04 09:26 138 0 gusting 2 15.0
2015-Sep-04 09:16 138 14.4
2015-Sep-04 09:06 134 1 gusting 2 13.9
2015-Sep-04 08:56 176 0 gusting 2 13.3
2015-Sep-04 08:46 177 0 gusting 1 13.3
2015-Sep-04 08:36 176 13.3
2015-Sep-04 08:26 176 13.3
2015-Sep-04 07:56 182 12.8
2015-Sep-04 07:36 182 12.2
2015-Sep-04 07:26 182 12.2
2015-Sep-04 07:16 182 12.2
2015-Sep-04 07:06 182 1 gusting 4 11.7
2015-Sep-04 06:46 115 11.7
2015-Sep-04 06:36 153 1 gusting 4 11.1
2015-Sep-04 06:16 134 0 gusting 1 10.6
2015-Sep-04 05:56 134 10.0
2015-Sep-04 05:46 134 9.4
2015-Sep-04 05:36 134 9.4
2015-Sep-04 05:26 134 9.4
2015-Sep-04 05:06 134 9.4
2015-Sep-04 04:56 134 9.4
2015-Sep-04 04:46 134 9.4
2015-Sep-04 04:36 134 8.9
2015-Sep-04 04:26 134 8.9
2015-Sep-04 04:16 134 8.9
2015-Sep-04 04:06 134 8.9
2015-Sep-04 03:56 134 8.9
2015-Sep-04 03:36 134 8.9
2015-Sep-04 03:26 134 8.9
2015-Sep-04 03:16 134 9.4
2015-Sep-04 03:06 134 9.4
2015-Sep-04 02:46 134 9.4
2015-Sep-04 02:36 134 9.4
2015-Sep-04 02:26 134 9.4
2015-Sep-04 02:06 134 9.4
2015-Sep-04 01:46 134 10.0
2015-Sep-04 01:16 134 10.0
2015-Sep-04 01:06 134 10.0
2015-Sep-04 00:56 134 10.6
2015-Sep-04 00:46 134 10.6
2015-Sep-04 00:36 134 10.6
2015-Sep-04 00:26 134 11.1
2015-Sep-04 00:16 134 0 gusting 2 11.1
2015-Sep-04 00:06 134 11.1
2015-Sep-03 23:56 134 11.1
2015-Sep-03 23:46 134 11.1
2015-Sep-03 23:36 134 11.1
2015-Sep-03 23:26 166 11.7
2015-Sep-03 23:16 166 11.7
2015-Sep-03 23:06 166 11.7
2015-Sep-03 22:56 166 11.7
2015-Sep-03 22:46 166 11.1
2015-Sep-03 22:26 166 0 gusting 2 11.1
2015-Sep-03 22:16 166 11.1
2015-Sep-03 22:06 166 11.1
2015-Sep-03 21:56 166 11.1
2015-Sep-03 21:46 166 11.1
2015-Sep-03 21:36 166 11.1
2015-Sep-03 21:26 166 11.1
2015-Sep-03 21:06 166 11.1
2015-Sep-03 20:56 166 11.7
2015-Sep-03 20:46 166 11.7
2015-Sep-03 20:36 166 11.7
2015-Sep-03 20:26 166 11.7
2015-Sep-03 19:46 166 12.2
2015-Sep-03 19:36 166 12.2
2015-Sep-03 19:26 166 12.2
2015-Sep-03 19:16 166 12.2
2015-Sep-03 19:06 166 12.8
2015-Sep-03 18:56 166 12.8
2015-Sep-03 18:46 166 12.8
2015-Sep-03 18:36 166 13.3
2015-Sep-03 18:26 166 13.3
2015-Sep-03 18:16 166 13.3
2015-Sep-03 18:06 166 13.9
2015-Sep-03 17:46 166 13.9
2015-Sep-03 17:36 166 13.9
2015-Sep-03 17:26 166 0 gusting 2 14.4
2015-Sep-03 17:16 166 14.4
2015-Sep-03 17:06 164 0 gusting 2 14.4
2015-Sep-03 16:56 164 15.0
2015-Sep-03 16:36 269 15.0
2015-Sep-03 16:26 215 15.0
2015-Sep-03 16:16 228 1 gusting 4 15.0
2015-Sep-03 16:06 186 0 gusting 5 15.0
2015-Sep-03 15:56 150 15.0
2015-Sep-03 15:46 150 15.0
2015-Sep-03 15:16 184 15.6
2015-Sep-03 15:06 184 16.1
2015-Sep-03 14:56 184 16.1
2015-Sep-03 14:46 184 0 gusting 5 16.1
2015-Sep-03 14:36 185 2 gusting 7 16.7
2015-Sep-03 14:26 218 1 gusting 6 17.2
2015-Sep-03 14:06 185 0 gusting 2 17.2
2015-Sep-03 13:46 164 1 gusting 6 17.8
2015-Sep-03 13:26 154 0 gusting 5 16.1
2015-Sep-03 13:06 196 0 gusting 6 16.7
2015-Sep-03 12:56 267 1 gusting 7 16.7
2015-Sep-03 12:46 190 0 gusting 4 16.1
2015-Sep-03 12:16 156 0 gusting 4 17.2
2015-Sep-03 11:56 148 3 gusting 10 16.7
2015-Sep-03 11:26 142 4 gusting 10 16.1
2015-Sep-03 11:06 281 0 gusting 2 15.6
2015-Sep-03 10:56 097 15.6
2015-Sep-03 10:46 263 0 gusting 5 14.4
2015-Sep-03 10:26 331 1 gusting 6 13.9
2015-Sep-03 10:16 335 3 gusting 6 15.0
2015-Sep-03 10:06 204 0 gusting 5 15.6
2015-Sep-03 09:46 103 0 gusting 6 15.0
2015-Sep-03 09:36 188 0 gusting 6 14.4
2015-Sep-03 09:26 196 1 gusting 6 15.0
2015-Sep-03 09:16 137 0 gusting 6 15.0
2015-Sep-03 09:06 170 0 gusting 4 15.0
2015-Sep-03 08:56 125 0 gusting 2 15.0
2015-Sep-03 08:46 136 2 gusting 6 14.4
2015-Sep-03 08:36 148 0 gusting 6 14.4
2015-Sep-03 08:16 126 0 gusting 2 13.3
2015-Sep-03 08:06 150 0 gusting 1 13.3
2015-Sep-03 07:56 155 12.8
2015-Sep-03 07:46 132 0 gusting 2 12.8
2015-Sep-03 07:26 170 0 gusting 5 12.8
2015-Sep-03 07:06 067 11.7
2015-Sep-03 06:56 126 0 gusting 2 11.1
2015-Sep-03 06:46 163 11.1
2015-Sep-03 06:36 163 11.1
2015-Sep-03 06:06 184 10.6
2015-Sep-03 05:56 184 10.0
2015-Sep-03 05:46 184 10.0
2015-Sep-03 05:26 184 9.4
2015-Sep-03 04:56 184 9.4
2015-Sep-03 04:36 184 9.4
2015-Sep-03 04:26 184 8.9
2015-Sep-03 04:16 184 8.9
2015-Sep-03 04:06 184 8.9
2015-Sep-03 03:46 184 9.4
2015-Sep-03 03:36 184 9.4
2015-Sep-03 03:26 184 9.4
2015-Sep-03 03:16 184 9.4
2015-Sep-03 03:06 184 9.4
2015-Sep-03 02:56 184 9.4
2015-Sep-03 02:46 184 9.4
2015-Sep-03 02:36 184 9.4
2015-Sep-03 02:26 184 9.4
2015-Sep-03 02:16 184 9.4
2015-Sep-03 02:06 184 9.4
2015-Sep-03 01:36 184 9.4
2015-Sep-03 01:26 184 9.4
2015-Sep-03 01:16 184 9.4
2015-Sep-03 00:56 184 10.0
2015-Sep-03 00:36 184 10.0
2015-Sep-03 00:26 184 10.0
2015-Sep-03 00:16 184 10.0
2015-Sep-03 00:06 184 10.0
2015-Sep-02 23:56 184 10.0
2015-Sep-02 23:46 184 10.6
2015-Sep-02 23:36 184 10.6
2015-Sep-02 23:26 184 10.6
2015-Sep-02 23:16 184 10.6
2015-Sep-02 23:06 184 10.6